[Date Prev][Date Next][Thread Prev][Thread Next] - [Date Index][Thread Index][Author Index]
2 Line ISS Keps 12-12
- Subject: [sarex] 2 Line ISS Keps 12-12
- From: "Dave Larsen PhD" <doc@xxxxxxxxxxx>
- Date: Fri, 12 Dec 2003 02:38:37 -0800
ISS
1 25544U 98067A 03346.08309035 .00014348 00000-0 14538-3 0 8829
2 25544 51.6283 202.5065 0005951 236.2068 260.8849 15.65520351288811
----
Via the sarex mailing list at AMSAT.ORG courtesy of AMSAT-NA.
To unsubscribe, send "unsubscribe sarex" to Majordomo@amsat.org
AMSAT Home